TimeMDT,TemperatureF,Dew PointF,Humidity,Sea Level PressureIn,VisibilityMPH,Wind Direction,Wind SpeedMPH,Gust SpeedMPH,PrecipitationIn,Events,Conditions,WindDirDegrees,DateUTC
12:52 AM,30.0,19.0,64,30.23,10.0,SW,5.8,-,N/A,,Clear,220,2013-11-02 06:52:00
1:52 AM,28.0,18.0,66,30.21,10.0,South,5.8,-,N/A,,Clear,170,2013-11-02 07:52:00
2:52 AM,28.0,19.0,69,30.20,10.0,SW,9.2,-,N/A,,Clear,220,2013-11-02 08:52:00
3:52 AM,25.0,18.0,75,30.19,10.0,SSW,5.8,-,N/A,,Clear,200,2013-11-02 09:52:00
4:52 AM,23.0,16.0,74,30.17,10.0,South,10.4,-,N/A,,Clear,190,2013-11-02 10:52:00
5:52 AM,27.0,19.9,75,30.14,10.0,South,9.2,-,N/A,,Clear,180,2013-11-02 11:52:00
6:52 AM,27.0,19.9,75,30.17,10.0,South,11.5,-,N/A,,Clear,180,2013-11-02 12:52:00
7:52 AM,24.1,18.0,77,30.19,10.0,South,6.9,-,N/A,,Clear,180,2013-11-02 13:52:00
8:52 AM,28.0,21.0,75,30.19,10.0,South,8.1,-,N/A,,Clear,170,2013-11-02 14:52:00
9:52 AM,37.9,25.0,60,30.14,10.0,South,13.8,-,N/A,,Clear,170,2013-11-02 15:52:00
10:52 AM,51.1,24.1,35,30.07,10.0,SSW,21.9,-,N/A,,Clear,200,2013-11-02 16:52:00
11:52 AM,59.0,19.9,22,30.04,10.0,SSW,25.3,-,N/A,,Clear,210,2013-11-02 17:52:00
12:52 PM,62.1,19.0,19,30.02,10.0,WSW,19.6,25.3,N/A,,Clear,240,2013-11-02 18:52:00
1:52 PM,64.9,16.0,15,29.97,10.0,SW,20.7,-,N/A,,Clear,220,2013-11-02 19:52:00
2:52 PM,66.9,15.1,14,29.92,10.0,SSW,19.6,29.9,N/A,,Clear,210,2013-11-02 20:52:00
3:52 PM,66.9,14.0,13,29.91,10.0,SW,18.4,27.6,N/A,,Clear,230,2013-11-02 21:52:00
4:52 PM,66.9,8.1,10,29.90,10.0,SSW,19.6,-,N/A,,Clear,210,2013-11-02 22:52:00
5:52 PM,64.0,8.1,11,29.86,10.0,SSW,18.4,-,N/A,,Clear,200,2013-11-02 23:52:00
6:52 PM,57.0,12.0,17,29.89,10.0,SSW,13.8,-,N/A,,Clear,200,2013-11-03 00:52:00
7:52 PM,54.0,16.0,22,29.90,10.0,SSW,18.4,-,N/A,,Clear,200,2013-11-03 01:52:00
8:52 PM,52.0,17.1,25,29.89,10.0,South,16.1,-,N/A,,Clear,190,2013-11-03 02:52:00
9:52 PM,48.0,19.0,32,29.87,10.0,South,9.2,-,N/A,,Clear,180,2013-11-03 03:52:00
10:52 PM,45.0,19.0,36,29.84,10.0,SSW,12.7,-,N/A,,Clear,200,2013-11-03 04:52:00
11:52 PM,45.0,18.0,34,29.79,10.0,SSW,21.9,-,N/A,,Clear,200,2013-11-03 05:52:00